This demonstration page uses our WeatherBlox Daily Observations layout. Learn more.

Left ArrowRight Arrow

39.51506, -84.39828

Hourly Observations for February 4, 2016

Temp ( °F °C ) Dew Point ( °F °C ) Humidity (%) Winds ( mph kmh ) Pressure ( in mb ) Visibility ( mi km ) Precip ( " mm )
12:15 am 00:15 Cloudy 37 2.6 28 -2.1 71 71 WNW 17 28 30.12 1020 10 16 0.00 0.00
12:35 am 00:35 Cloudy 37 2.6 29 -1.5 75 75 W 12 19 30.12 1020 10 16 0.00 0.00
12:55 am 00:55 Cloudy 37 2.6 28 -2.3 70 70 W 8 13 30.12 1020 10 16 0.00 0.00
1:15 am 01:15 Cloudy 37 2.6 28 -2.5 69 69 W 10 17 30.15 1021 10 16 0.00 0.00
1:35 am 01:35 Cloudy 37 2.6 28 -2.4 70 70 W 13 20 30.15 1021 10 16 0.00 0.00
1:55 am 01:55 Cloudy 37 2.6 27 -2.6 69 69 WNW 13 20 30.15 1021 10 16 0.00 0.00
2:15 am 02:15 Cloudy 36 2 26 -3.5 67 67 W 13 20 30.18 1022 10 16 0.00 0.00
2:35 am 02:35 Cloudy 36 2 25 -3.7 66 66 W 12 19 30.18 1022 10 16 0.00 0.00
2:55 am 02:55 Cloudy 35 1.7 25 -3.8 67 67 W 9 15 30.18 1022 10 16 0.00 0.00
3:15 am 03:15 Cloudy 34 1.2 23 -4.8 65 65 W 12 19 30.18 1022 10 16 0.00 0.00
3:35 am 03:35 Cloudy 34 1.2 23 -4.8 65 65 W 12 19 30.18 1022 10 16 0.00 0.00
3:55 am 03:55 Cloudy 34 1.2 23 -4.8 65 65 W 12 19 30.18 1022 10 16 0.00 0.00
4:15 am 04:15 Cloudy 34 1.2 23 -5 64 64 W 8 13 30.21 1023 10 16 0.00 0.00
4:35 am 04:35 Cloudy 34 1.2 24 -4.6 66 66 WSW 8 13 30.21 1023 10 16 0.00 0.00
4:55 am 04:55 Cloudy 34 1.2 23 -4.8 65 65 WNW 12 19 30.21 1023 10 16 0.00 0.00
5:15 am 05:15 Cloudy 34 1.2 23 -4.8 65 65 WNW 7 11 30.21 1023 10 16 0.00 0.00
5:35 am 05:35 Cloudy 34 1.2 23 -4.9 64 64 WNW 7 11 30.21 1023 10 16 0.00 0.00
5:55 am 05:55 Cloudy 34 1.2 24 -4.7 65 65 W 9 15 30.21 1023 10 16 0.00 0.00
6:15 am 06:15 Cloudy 34 1.2 24 -4.7 65 65 W 9 15 30.24 1024 10 16 0.00 0.00
6:35 am 06:35 Cloudy 34 1.2 24 -4.6 66 66 W 7 11 30.24 1024 10 16 0.00 0.00
6:55 am 06:55 Cloudy 34 1.2 24 -4.7 65 65 W 10 17 30.24 1024 10 16 0.00 0.00
7:15 am 07:15 Cloudy 34 1.2 24 -4.7 65 65 W 12 19 30.24 1024 10 16 0.00 0.00
7:35 am 07:35 Cloudy 34 1.2 24 -4.7 65 65 W 7 11 30.24 1024 10 16 0.00 0.00
7:55 am 07:55 Cloudy 34 1.2 24 -4.6 66 66 W 10 17 30.24 1024 10 16 0.00 0.00
8:15 am 08:15 Cloudy 34 1.2 23 -4.8 65 65 WSW 9 15 30.27 1025 10 16 0.00 0.00
8:35 am 08:35 Cloudy 34 1.2 24 -4.7 65 65 W 6 9 30.27 1025 10 16 0.00 0.00
8:55 am 08:55 Cloudy 34 1.2 23 -5 64 64 W 7 11 30.27 1025 10 16 0.00 0.00
9:15 am 09:15 Cloudy 34 1.2 23 -5 64 64 W 9 15 30.27 1025 10 16 0.00 0.00
9:35 am 09:35 Cloudy 34 1.2 23 -5.2 63 63 W 7 11 30.27 1025 10 16 0.00 0.00
9:55 am 09:55 Cloudy 34 1.2 23 -5 64 64 W 8 13 30.27 1025 10 16 0.00 0.00
10:15 am 10:15 Cloudy 34 1.2 24 -4.7 65 65 WNW 9 15 30.30 1026 10 16 0.00 0.00
10:35 am 10:35 Cloudy 34 1.2 23 -4.8 65 65 W 8 13 30.30 1026 10 16 0.00 0.00
10:55 am 10:55 Cloudy 34 1.2 23 -4.9 64 64 WNW 8 13 30.30 1026 10 16 0.00 0.00
11:15 am 11:15 Cloudy 34 1.2 22 -5.3 62 62 WNW 12 19 30.30 1026 10 16 0.00 0.00
11:35 am 11:35 Cloudy 34 1.2 22 -5.8 60 60 W 10 17 30.30 1026 10 16 0.00 0.00
11:55 am 11:55 Cloudy 34 1.2 22 -5.6 61 61 W 8 13 30.30 1026 10 16 0.00 0.00
12:15 pm 12:15 Cloudy with Light Snow 34 1.2 22 -5.4 62 62 WNW 9 15 30.27 1025 10 16 0.00 0.00
12:35 pm 12:35 Cloudy with Light Rain 34 1.2 22 -5.5 61 61 W 6 9 30.27 1025 10 16 0.00 0.00
12:55 pm 12:55 Cloudy 34 1.2 20 -6.5 57 57 W 6 9 30.27 1025 10 16 0.00 0.00
1:15 pm 13:15 Cloudy 35 1.9 21 -6.3 55 55 W 7 11 30.27 1025 10 16 0.00 0.00
1:35 pm 13:35 Cloudy 34 1.2 20 -6.6 56 56 WSW 8 13 30.27 1025 10 16 0.00 0.00
1:55 pm 13:55 Cloudy 34 1.2 22 -5.8 60 60 NW 9 15 30.27 1025 10 16 0.00 0.00
2:15 pm 14:15 Cloudy with Drizzle 34 1.2 22 -5.3 62 62 WNW 10 17 30.27 1025 10 16 0.00 0.00
2:35 pm 14:35 Cloudy with Drizzle 34 1.2 23 -5.2 63 63 W 13 20 30.27 1025 10 16 0.00 0.00
2:55 pm 14:55 Cloudy 34 1.2 24 -4.4 67 67 W 9 15 30.27 1025 10 16 0.00 0.00
3:15 pm 15:15 Cloudy 34 1.2 23 -4.8 65 65 WNW 9 15 30.27 1025 10 16 0.00 0.00
3:35 pm 15:35 Cloudy 34 1.2 22 -5.7 60 60 W 9 15 30.27 1025 10 16 0.00 0.00
3:55 pm 15:55 Cloudy 34 1.2 21 -5.9 60 60 WNW 9 15 30.27 1025 10 16 0.00 0.00
4:15 pm 16:15 Cloudy 34 1.2 21 -6.3 58 58 W 13 20 30.27 1025 10 16 0.00 0.00
4:35 pm 16:35 Cloudy with Light Wintry Mix 34 1.2 22 -5.6 61 61 WNW 12 19 30.27 1025 10 16 0.00 0.00
4:55 pm 16:55 Cloudy 34 1.2 21 -6.1 59 59 W 9 15 30.30 1026 10 16 0.00 0.00
5:15 pm 17:15 Cloudy 34 1.2 21 -6.2 58 58 WNW 8 13 30.30 1026 10 16 0.00 0.00
5:35 pm 17:35 Cloudy 34 1.2 21 -5.9 60 60 W 10 17 30.30 1026 10 16 0.00 0.00
5:55 pm 17:55 Mostly Cloudy 34 1.2 22 -5.7 60 60 W 8 13 30.30 1026 10 16 0.00 0.00
6:15 pm 18:15 Mostly Cloudy 34 1.2 22 -5.6 61 61 W 5 7 30.30 1026 10 16 0.00 0.00
6:35 pm 18:35 Cloudy 34 1.2 21 -6 59 59 W 7 11 30.33 1027 10 16 0.00 0.00
6:55 pm 18:55 Mostly Cloudy 33 0.3 18 -7.7 55 55 WNW 3 6 30.33 1027 10 16 0.00 0.00
7:15 pm 19:15 Cloudy 34 1.2 20 -6.8 56 56 WNW 5 7 30.33 1027 10 16 0.00 0.00
7:35 pm 19:35 Cloudy 32 0 17 -8.1 55 55 WNW 7 11 30.33 1027 10 16 0.00 0.00
7:55 pm 19:55 Mostly Cloudy 32 0 17 -8.6 53 53 WNW 7 11 30.33 1027 10 16 0.00 0.00
8:15 pm 20:15 Partly Cloudy 31 -0.8 17 -8.4 57 57 WNW 7 11 30.36 1028 10 16 0.00 0.00
8:35 pm 20:35 Clear 29 -1.5 17 -8.6 59 59 NW 5 7 30.36 1028 10 16 0.00 0.00
8:55 pm 20:55 Clear 29 -1.5 17 -8.1 61 61 WNW 5 7 30.36 1028 10 16 0.00 0.00
9:15 pm 21:15 Clear 29 -1.5 18 -7.8 63 63 NW 3 6 30.36 1028 10 16 0.00 0.00
9:35 pm 21:35 Clear 29 -1.5 18 -7.6 64 64 NNW 3 6 30.36 1028 10 16 0.00 0.00
9:55 pm 21:55 Clear 29 -1.5 19 -7.2 66 66 Calm 30.39 1029 10 16 0.00 0.00
10:15 pm 22:15 Clear 29 -1.5 20 -6.7 68 68 Calm 30.39 1029 10 16 0.00 0.00
10:35 pm 22:35 Clear 28 -2.1 19 -7.1 69 69 Calm 30.39 1029 10 16 0.00 0.00
10:55 pm 22:55 Clear 27 -2.8 20 -6.5 76 76 Calm 30.39 1029 10 16 0.00 0.00
11:15 pm 23:15 Clear 27 -2.8 21 -6 79 79 Calm 30.39 1029 10 16 0.00 0.00
11:35 pm 23:35 Clear 24 -4.4 19 -7.2 81 81 Calm 30.39 1029 10 16 0.00 0.00
11:55 pm 23:55 Clear 24 -4.2 19 -7 81 81 Calm 30.39 1029 10 16 0.00 0.00

Powered by AerisWeather